Retour au catalogue

COSMOS 2251 DEB

ActifLEO
NORAD 34114·DEBRIS·🇷🇺 Russia

Lancé Jun 16, 1993 depuis Plesetsk Cosmodrome

Loading…

Prochains Passages (prochaines 24 heures)

TLE

FraisSource: Space-Track

Époque: Sep 13, 2026, 01:25 UTC

1 34114U 93036KK  26256.05918525  .00004437  00000-0  90104-3 0  9995
2 34114  74.0547 241.8313 0042644 176.4739 253.9177 14.60880105918028

Suivez COSMOS 2251 DEB en temps réel avec AllMySat

Download on the App Store